Location: Unspecified
(33.9239°N, 118.0544°W)
Time: 03:42:52
(UTC-07:00)

Resurs 1-4 Rocket - Visible Passes

Search period start: 29 July 2014 00:00
Search period end: 08 August 2014 00:00
Orbit: 800 x 815 km, 98.3° (Epoch: 27 July)

Date Brightness Start Highest point End Pass type
(mag) Time Alt. Az. Time Alt. Az. Time Alt. Az.
29 Jul 2.4 04:51:30 10° NNE 04:56:45 70° ESE 05:01:57 10° S visible
30 Jul 3.3 04:27:24 10° NNE 04:32:18 39° E 04:37:10 10° SSE visible
31 Jul 4.2 04:03:42 10° NE 04:07:45 22° E 04:11:47 10° SE visible
01 Aug 4.7 03:41:02 10° ENE 03:43:08 12° E 03:45:14 10° ESE visible
01 Aug 2.2 05:18:10 10° N 05:23:21 63° WNW 05:28:31 10° SSW visible
02 Aug 2.3 04:53:44 10° NNE 04:58:59 75° ESE 05:04:13 10° S visible
03 Aug 3.2 04:29:35 10° NNE 04:34:33 42° E 04:39:29 10° S visible
04 Aug 4.1 04:05:50 10° NE 04:10:01 24° E 04:14:11 10° SSE visible
05 Aug 4.7 03:42:57 10° ENE 03:45:25 13° E 03:47:52 10° ESE visible
05 Aug 2.2 05:20:26 10° N 05:25:35 59° WNW 05:30:43 10° SSW visible
06 Aug 2.2 04:55:58 10° NNE 05:01:14 80° ESE 05:06:28 10° S visible
07 Aug 3.1 04:31:46 10° NNE 04:36:48 45° E 04:41:47 10° S visible
